Regional Weather Roundup
Issued by NWS Boston, MA

Current Version | Previous Version | Text Only | Print | Product List | Glossary Off
Versions: 1 2 3 4 5 6 7 8 9 10 11 12 13 14 15 16 17 18 19 20 21 22 23 24 25 26 27 28 29 30 31 32 33 34 35 36 37 38 39 40 41 42 43 44 45 46 47 48 49 50
000 ASUS41 KBOX 261310 RWRBOX REGIONAL WEATHER ROUNDUP NATIONAL WEATHER SERVICE TAUNTON MA 900 AM EDT FRI MAY 26 2017 NOTE: "FAIR" INDICATES FEW OR NO CLOUDS BELOW 12,000 FEET WITH NO SIGNIFICANT WEATHER AND/OR OBSTRUCTIONS TO VISIBILITY. MAZALL-261400- EASTERN MASSACHUSETTS CITY SKY/WX TMP DP RH WIND PRES REMARKS BOSTON LGT RAIN 49 49 100 N10 29.48S FOG BEVERLY CLOUDY 50 48 93 N15G22 29.48R FOG LAWRENCE CLOUDY 51 48 89 NE10 29.51S BEDFORD LGT RAIN 50 46 86 N8 29.49S FOG BLUE HILL N/A 47 46 97 N12G17 29.46S NORWOOD CLOUDY 51 49 92 NW9 29.48S FOG MARSHFIELD CLOUDY 52 52 100 NW7 29.46R FOG PLYMOUTH LGT RAIN 51 49 92 NW6 29.46S TAUNTON LGT RAIN 51 49 92 NW7 29.47R NEW BEDFORD LGT RAIN 52 50 93 N6 29.45R $$ MAZALL-261400- CAPE COD AND THE ISLANDS CITY SKY/WX TMP DP RH WIND PRES REMARKS FALMOUTH CLOUDY 55 55 100 MISG 29.45F HYANNIS CLOUDY 57 56 96 SW12 29.43F CHATHAM CLOUDY 57 56 96 SW8G17 29.46F PROVINCETOWN LGT RAIN 56 56 100 S7 29.45F FOG NANTUCKET CLOUDY 55 53 93 S20 29.47F MARTHAS VNYRD CLOUDY 56 54 93 SW13 29.45S FOG $$ MAZALL-261400- CENTRAL AND WESTERN MASSACHUSETTS CITY SKY/WX TMP DP RH WIND PRES REMARKS WORCESTER LGT RAIN 47 44 90 N9 29.52R FOG FITCHBURG LGT RAIN 51 48 89 NW7 29.53R FOG ORANGE LGT RAIN 50 50 100 NW6 29.54R FOG SPRINGFIELD LGT RAIN 52 50 93 N6 29.54R FOG WESTFIELD LGT RAIN 53 52 96 N6 29.54F NORTH ADAMS LGT RAIN 52 51 97 CALM 29.55S PITTSFIELD LGT RAIN 51 49 92 W6 29.54S $$ RIZALL-261400- RHODE ISLAND CITY SKY/WX TMP DP RH WIND PRES REMARKS PROVIDENCE LGT RAIN 50 50 100 NW9 29.50R FOG NEWPORT LGT RAIN 51 51 100 NW12 29.47R BLOCK ISLAND CLOUDY 52 51 97 NW10G17 29.51R SMITHFIELD LGT RAIN 48 48 100 NW6 29.50R WESTERLY LGT RAIN 53 50 89 NW9 29.51R $$ CTZALL-261400- CONNECTICUT CITY SKY/WX TMP DP RH WIND PRES REMARKS BRADLEY INTL LGT RAIN 53 52 96 N6 29.54F FOG HARTFORD LGT RAIN 53 51 93 N7 29.54S BRIDGEPORT LGT RAIN 57 51 80 NW8 29.56R DANBURY CLOUDY 54 52 93 W3 29.58R GROTON CLOUDY 54 50 86 NW12 29.51R NEW HAVEN CLOUDY 54 52 93 N9 29.55R CHESTER PTSUNNY 52 52 100 NW9 29.53S MERIDEN CLOUDY 53 51 93 NW5 29.55S WILLIMANTIC LGT RAIN 54 51 90 NW7 29.54R OXFORD CLOUDY 52 46 82 CALM 29.57R FOG $$ MEZ002-015-021-024-NHZ003-005-008-011-012-014-VTZ005-008-261400- NORTHERN NEW ENGLAND CITY SKY/WX TMP DP RH WIND PRES REMARKS PORTLAND ME CLOUDY 49 47 93 NE14G30 29.52F FOG BANGOR ME CLOUDY 50 48 93 NE9 29.61F CONCORD NH CLOUDY 51 48 89 NE9 29.53S MANCHESTER NH CLOUDY 51 46 83 N12 29.50F NASHUA NH CLOUDY 50 49 96 NW8 29.52S PORTSMOUTH NH LGT RAIN 49 48 95 N12 29.48F FOG JAFFREY NH LGT RAIN 49 49 100 VRB3 29.54R FOG KEENE NH LGT RAIN 51 50 96 N5 29.56R BURLINGTON VT LGT RAIN 55 54 96 CALM 29.55F MT. WASHINGTON FOG 36 36 100 NE13G22 N/A VSB 1/2 WCI 27 $$ NYZ052-076-261400- EASTERN NEW YORK CITY SKY/WX TMP DP RH WIND PRES REMARKS ALBANY LGT RAIN 55 52 89 NW6 29.57R NEW YORK CITY CLOUDY 61 56 83 NW10 29.58R $$ ANZALL-261400- MARINE OBSERVATIONS STATION/POSITION TIME TEMP WIND PRES VSBY WAVE AIR SEA DIR/SP/G HT/PER (UTC) (F) (DEG/KT/KT) (MB) (MI) (FT/S) BOSTON BUOY 1250 50 52 360/ 14/ 16 996.8S 6/ 8 BUZZARDS BAY 1200 54 230/ 14/ 16 997.3F NANTUCKET SOUND 1250 54 997.1F 2/ 3 MASS BAY-STELLWA 1204 49 49 20/ 14/ 16 996.8F 6/ 8 ISLE OF SHOALS 1200 47 30/ 30/ 34 997.1F S OF BLOCK IS 1255 53 N/A 8/10 $$ ......................KEY......................... SKY/WX - SKY CONDITION/PRESENT WEATHER TMP - TEMPERATURE IN FAHRENHEIT DWPT - DEWPOINT IN FAHRENHEIT RH - RELATIVE HUMIDITY IN PERCENT WIND - DIRECTION AND SPEED IN MPH PRES - MEAN SEA LEVEL PRESSURE IN INCHES OF HG WCI - WIND CHILL INDEX VSB - VISIBILITY IN MILES HX - HEAT INDEX TC - TEMPERATURE IN CELSIUS VRB - VARIABLE WIND DIRECTION N/A - NOT AVAILABLE

USA.gov is the U.S. government's official web portal to all federal, state and local government web resources and services.